Weather in Staraya Sol

Ukraine / Lviv District     49°29′21″N   22°57′55″E
temp.,
°C
wind,
m/s
gust,
m/s
humid.,
%
clouds,
%
prec.,
mm/h
press.,
hPa
HPBL,
m
20 september, mon
mon2000:00+7wnw4992100 0.1 1014857
03:00+6nw2594100 0.4 1015445
06:00+6nnw2396100 0.1 1015283
09:00+6nw3792100 0.3 1016821
12:00+6nw3690100 0.2 1017719
15:00+6wnw3787100 0.4 1018702
18:00+6wnw3888100 0.1 1019815
21:00+5nw3889100 0.3 1021713
21 september, tue
tue2100:00+5nw3989100 0.1 1022747
03:00+5w3789100 0.1 1023401
06:00+5w3884100 0.0 1023443
09:00+6w3975100 0.0 1024666
12:00+9nw586399 0.1 10241465
15:00+9wnw5866100 0.1 10241455
18:00+9wnw4868100 0.1 10241236
21:00+8w2479100 0.1 1025126
22 september, wed
wed2200:00+7wsw2281100 0.1 102528
03:00+7wsw2480100 0.1 102393
06:00+6wsw2486100 0.1 1022118
09:00+6wnw3693100 0.6 1022987
12:00+6w2493100 2.2 1022375
15:00+8w3584100 2.4 1022734
18:00+8w378898 0.3 1021468
21:00+6w2392100 0.8 102156
23 september, thu
thu2300:00+6wsw349591 0.6 1021115
03:00+6wsw259595 0.9 1021174
06:00+5wsw349674 0.3 102096
09:00+7w3793100 0.5 1020427
12:00+11wnw467187 0.2 10191106
15:00+12wnw366695 0.4 10181123
18:00+12w477182 0.2 1016597
21:00+8sw388279 0.3 1016173
24 september, fri
fri2400:00+9sw61574100 0.0 1014473
03:00+10sw91865100 0.0 1012635
06:00+10sw102061100 0.0 1009638
09:00+11sw101864100 0.0 1009697
12:00+10wsw61383100 0.8 1011672
15:00+12wsw61274100 0.8 10111057
18:00+12w51275100 0.1 10121296
21:00+8w2282100 0.1 101432